Regional Weather Roundup
Issued by NWS Cleveland, OH

Home | Current Version | Previous Version | Graphics & Text | Print | Product List | Glossary On
Versions: 1 2 3 4 5 6 7 8 9 10 11 12 13 14 15 16 17 18 19 20 21 22 23 24 25 26 27 28 29 30 31 32 33 34 35 36 37 38 39 40 41 42 43 44 45 46 47 48 49 50
000
ASUS41 KCLE 281602
RWRCLE
OHIO REGIONAL WEATHER ROUNDUP
NATIONAL WEATHER SERVICE CLEVELAND, OH
1200 PM EDT SUN AUG 28 2016

NOTE: "FAIR" INDICATES FEW OR NO CLOUDS BELOW 12,000 FEET WITH NO
SIGNIFICANT WEATHER AND/OR OBSTRUCTIONS TO VISIBILITY.

OHZ001>008-015>018-024>027-034-035-043-044-281700-
   NORTHWEST OHIO

CITY           SKY/WX    TMP DP  RH WIND       PRES   REMARKS
DEFIANCE       SUNNY     84  73  69 SW5       30.21R HX  90
FINDLAY        MOSUNNY   85  72  65 CALM      30.21S HX  91
TOLEDO EXPRESS SUNNY     83  76  79 SW8       30.20S HX  91
TOLEDO EXEC    MOSUNNY   83  75  77 W5        30.20S HX  90
LIMA           SUNNY     84  74  71 SE3       30.22F HX  91
$$

OHZ009>014-019>023-028>033-038-089-281700-
   NORTHEAST OHIO

CITY           SKY/WX    TMP DP  RH WIND       PRES   REMARKS
CLE-HOPKINS    MOSUNNY   85  71  63 CALM      30.23S HX  90
CLE-LAKEFRONT  SUNNY     81  72  74 NW6       30.20S
CUY CO. ARPT   MOSUNNY   84  75  74 W6        30.23R HX  92
LORAIN-ELYRIA  MOSUNNY   83  73  72 NW3       30.22S
ASHTABULA      SUNNY     82  73  74 W6        30.23R
AKRON-CANTON   CLOUDY    79  69  71 CALM      30.24S
WOOSTER        PTSUNNY   80  72  76 VRB3      30.25S
MANSFIELD      SUNNY     84  70  62 CALM      30.25S
YOUNGSTOWN     PTSUNNY   83  68  60 S6        30.23S
$$

OHZ042-051>053-060>062-070>072-077>081-281700-
  SOUTHWEST OHIO

CITY           SKY/WX    TMP DP  RH WIND       PRES   REMARKS
CINC-COVINGTON MOSUNNY   87  73  62 NE6       30.22S HX  94
CINC-LUNKEN    NOT AVBL
HAMILTON       SUNNY     87  71  58 N6        30.22S HX  93
DAYTON         MOSUNNY   85  71  63 N8        30.24F HX  90
WRIGHT-PAT AFB SUNNY     83  73  70 VRB3      30.22F
DAYTON GENERAL MOSUNNY   85  71  63 N6        30.22S HX  90
WILMINGTON     SUNNY     86  71  60 VRB5      30.23S HX  91
$$

OHZ036-037-039>041-045>050-054>059-063>069-073>076-082>088-281700-
  CENTRAL AND SOUTHEAST OHIO

CITY           SKY/WX    TMP DP  RH WIND       PRES   REMARKS
COLUMBUS       MOSUNNY   83  70  64 CALM      30.22S
OSU AIRPORT    SUNNY     85  69  58 NE5       30.23S
BOLTON FIELD   SUNNY     84  70  61 CALM      30.24R
RICKENBACK AFB SUNNY     82  69  63 E5        30.22S
NEWARK         PTSUNNY   86  71  60 NE5       30.22F HX  91
MARION         SUNNY     83  71  67 CALM      30.23F
LANCASTER      SUNNY     85  70  60 NE6       30.24R
ZANESVILLE     PTSUNNY   83  69  62 NE5       30.23S
NEW PHILLY     CLOUDY    85  68  56 CALM      30.23S
$$



USA.gov is the U.S. government's official web portal to all federal, state and local government web resources and services.